ASA7767 KSEA-PAKT

Flight info

Callsign ASA7767
Flight time 1h 54m
Altitude 38000
Route BANGR9 PANGL PR ANN
Aircraft A319/M-SDE3FGHIRWY/LB1

Departure

Time 2026-04-16 21:07
Airport Seattle–Tacoma International Airport (KSEA)

Arrival

Time 2026-04-16 23:01
Airport Ketchikan International Airport (PAKT)
Time Latitude Longitude Altitude Speed Heading
2026-04-16 20:39 47.45622 -122.30285 394 ft 0 kts 180°
2026-04-16 20:56 47.45634 -122.30284 392 ft 4 kts 179°
2026-04-16 20:56 47.45661 -122.30286 392 ft 4 kts 177°
2026-04-16 20:56 47.45688 -122.30286 391 ft 4 kts 194°
2026-04-16 20:57 47.45703 -122.30274 390 ft 2 kts 270°
2026-04-16 20:57 47.45703 -122.30271 394 ft 0 kts 272°
2026-04-16 21:01 47.45703 -122.30276 394 ft 1 kts 272°
2026-04-16 21:01 47.45706 -122.30312 388 ft 5 kts 277°
2026-04-16 21:01 47.45710 -122.30370 394 ft 6 kts 275°
2026-04-16 21:01 47.45721 -122.30449 388 ft 9 kts 294°
2026-04-16 21:02 47.45776 -122.30496 393 ft 11 kts 354°
2026-04-16 21:02 47.45863 -122.30499 391 ft 13 kts
2026-04-16 21:02 47.45956 -122.30498 388 ft 14 kts
2026-04-16 21:03 47.46147 -122.30496 394 ft 14 kts 357°
2026-04-16 21:03 47.46245 -122.30509 389 ft 14 kts 352°
2026-04-16 21:03 47.46324 -122.30560 388 ft 8 kts 316°
2026-04-16 21:03 47.46361 -122.30624 391 ft 8 kts 306°
2026-04-16 21:04 47.46362 -122.30626 394 ft 0 kts 305°
2026-04-16 21:04 47.46367 -122.30638 394 ft 6 kts 300°
2026-04-16 21:04 47.46347 -122.30762 391 ft 16 kts 208°
2026-04-16 21:05 47.46284 -122.30777 394 ft 0 kts 179°
2026-04-16 21:06 47.46279 -122.30777 392 ft 4 kts 179°
2026-04-16 21:06 47.45952 -122.30778 392 ft 93 kts 181°
2026-04-16 21:06 47.45037 -122.30797 447 ft 160 kts 181°
2026-04-16 21:07 47.43942 -122.30771 1323 ft 157 kts 179°
2026-04-16 21:07 47.42850 -122.30742 2214 ft 157 kts 184°
2026-04-16 21:07 47.41735 -122.30765 2703 ft 169 kts 184°
2026-04-16 21:07 47.40479 -122.30805 3074 ft 193 kts 183°
2026-04-16 21:08 47.39052 -122.30853 3554 ft 217 kts 184°
2026-04-16 21:08 47.37461 -122.30924 4065 ft 241 kts 184°
2026-04-16 21:08 47.35716 -122.31010 4747 ft 257 kts 185°
2026-04-16 21:08 47.33967 -122.31628 5664 ft 261 kts 207°
2026-04-16 21:09 47.32513 -122.33221 6630 ft 263 kts 231°
2026-04-16 21:09 47.31603 -122.35553 7505 ft 265 kts 254°
2026-04-16 21:09 47.31261 -122.38230 8472 ft 268 kts 263°
2026-04-16 21:09 47.30993 -122.40964 9422 ft 272 kts 268°
2026-04-16 21:10 47.31071 -122.43755 10349 ft 273 kts 283°
2026-04-16 21:10 47.31633 -122.46452 10994 ft 284 kts 297°
2026-04-16 21:10 47.32594 -122.49127 11316 ft 307 kts 301°
2026-04-16 21:10 47.33821 -122.51773 11912 ft 317 kts 311°
2026-04-16 21:11 47.35406 -122.54059 12727 ft 321 kts 320°
2026-04-16 21:11 47.37102 -122.56223 13574 ft 324 kts 320°
2026-04-16 21:11 47.38816 -122.58420 14365 ft 328 kts 320°
2026-04-16 21:11 47.40547 -122.60642 15106 ft 331 kts 320°
2026-04-16 21:12 47.42289 -122.62885 15889 ft 333 kts 320°
2026-04-16 21:12 47.44038 -122.65138 16675 ft 335 kts 321°
2026-04-16 21:12 47.45797 -122.67407 17456 ft 337 kts 321°
2026-04-16 21:12 47.47565 -122.69687 18245 ft 338 kts 322°
2026-04-16 21:13 47.49344 -122.71979 18945 ft 340 kts 322°
2026-04-16 21:13 47.51129 -122.74280 19640 ft 341 kts 322°
2026-04-16 21:13 47.52913 -122.76584 20375 ft 340 kts 323°
2026-04-16 21:13 47.54693 -122.78886 21111 ft 340 kts 323°
2026-04-16 21:14 47.56468 -122.81188 21851 ft 339 kts 323°
2026-04-16 21:14 47.58243 -122.83492 22574 ft 339 kts 323°
2026-04-16 21:14 47.60014 -122.85796 23279 ft 339 kts 324°
2026-04-16 21:14 47.61760 -122.88068 23901 ft 339 kts 324°
2026-04-16 21:15 47.63536 -122.90380 24419 ft 340 kts 324°
2026-04-16 21:15 47.65296 -122.92722 24905 ft 341 kts 322°
2026-04-16 21:15 47.67013 -122.95167 25366 ft 343 kts 321°
2026-04-16 21:15 47.68709 -122.97679 25796 ft 345 kts 320°
2026-04-16 21:16 47.70402 -123.00227 26208 ft 348 kts 320°
2026-04-16 21:16 47.72105 -123.02788 26709 ft 349 kts 320°
2026-04-16 21:16 47.73812 -123.05347 27217 ft 350 kts 320°
2026-04-16 21:16 47.75531 -123.07913 27655 ft 352 kts 320°
2026-04-16 21:17 47.77267 -123.10490 28034 ft 353 kts 321°
2026-04-16 21:17 47.79011 -123.13076 28418 ft 354 kts 320°
2026-04-16 21:17 47.80759 -123.15665 28829 ft 356 kts 320°
2026-04-16 21:17 47.82516 -123.18270 29271 ft 357 kts 320°
2026-04-16 21:18 47.84279 -123.20891 29635 ft 359 kts 320°
2026-04-16 21:18 47.86051 -123.23524 30033 ft 361 kts 320°
2026-04-16 21:18 47.87831 -123.26169 30439 ft 362 kts 320°
2026-04-16 21:18 47.89619 -123.28827 30744 ft 364 kts 320°
2026-04-16 21:19 47.91413 -123.31500 31038 ft 366 kts 320°
2026-04-16 21:19 47.93217 -123.34193 31349 ft 367 kts 320°
2026-04-16 21:19 47.95023 -123.36898 31639 ft 369 kts 320°
2026-04-16 21:19 47.96829 -123.39607 32081 ft 367 kts 319°
2026-04-16 21:20 47.98629 -123.42308 32542 ft 366 kts 319°
2026-04-16 21:20 48.00420 -123.44996 33031 ft 364 kts 319°
2026-04-16 21:20 48.02203 -123.47676 33490 ft 363 kts 319°
2026-04-16 21:20 48.03982 -123.50353 33932 ft 362 kts 319°
2026-04-16 21:21 48.05755 -123.53018 34371 ft 361 kts 319°
2026-04-16 21:21 48.07523 -123.55673 34697 ft 361 kts 319°
2026-04-16 21:21 48.09296 -123.58340 34967 ft 362 kts 319°
2026-04-16 21:21 48.11073 -123.61022 35228 ft 364 kts 319°
2026-04-16 21:22 48.12856 -123.63721 35475 ft 365 kts 318°
2026-04-16 21:22 48.14667 -123.66388 35702 ft 365 kts 322°
2026-04-16 21:22 48.16718 -123.68623 35915 ft 365 kts 329°
2026-04-16 21:22 48.18875 -123.70648 36149 ft 366 kts 329°
2026-04-16 21:23 48.21038 -123.72683 36373 ft 368 kts 329°
2026-04-16 21:23 48.23207 -123.74727 36595 ft 369 kts 329°
2026-04-16 21:23 48.25383 -123.76781 36810 ft 370 kts 329°
2026-04-16 21:23 48.27567 -123.78844 37015 ft 371 kts 329°
2026-04-16 21:24 48.29755 -123.80911 37226 ft 372 kts 329°
2026-04-16 21:24 48.31951 -123.82988 37426 ft 374 kts 329°
2026-04-16 21:24 48.34152 -123.85075 37626 ft 375 kts 329°
2026-04-16 21:24 48.36330 -123.87142 37822 ft 376 kts 329°
2026-04-16 21:25 48.38571 -123.89270 38018 ft 377 kts 329°
2026-04-16 21:25 48.40764 -123.91350 38213 ft 377 kts 329°
2026-04-16 21:25 48.43019 -123.93495 38299 ft 379 kts 329°
2026-04-16 21:26 48.47451 -123.97725 38302 ft 380 kts 329°
2026-04-16 21:26 48.51940 -124.02021 38293 ft 380 kts 328°
2026-04-16 21:27 48.56371 -124.06273 38296 ft 380 kts 328°
2026-04-16 21:27 48.60831 -124.10541 38294 ft 380 kts 329°
2026-04-16 21:28 48.65326 -124.14857 38298 ft 380 kts 328°
2026-04-16 21:28 48.69757 -124.19133 38299 ft 380 kts 328°
2026-04-16 21:29 48.73489 -124.22740 38298 ft 380 kts 328°
2026-04-16 21:29 48.77945 -124.27048 38336 ft 380 kts 328°
2026-04-16 21:30 48.83125 -124.32072 38290 ft 381 kts 328°
2026-04-16 21:30 48.86860 -124.35710 38287 ft 381 kts 328°
2026-04-16 21:31 48.91323 -124.40052 38277 ft 381 kts 328°
2026-04-16 21:31 48.95786 -124.44392 38283 ft 381 kts 328°
2026-04-16 21:32 49.00239 -124.48744 38286 ft 380 kts 328°
2026-04-16 21:32 49.04688 -124.53117 38288 ft 381 kts 328°
2026-04-16 21:33 49.09137 -124.57483 38286 ft 380 kts 328°
2026-04-16 21:33 49.13580 -124.61849 38285 ft 380 kts 328°
2026-04-16 21:34 49.18013 -124.66233 38283 ft 379 kts 328°
2026-04-16 21:34 49.22441 -124.70607 38288 ft 379 kts 328°
2026-04-16 21:35 49.26153 -124.74281 38288 ft 379 kts 328°
2026-04-16 21:35 49.30579 -124.78676 38282 ft 379 kts 327°
2026-04-16 21:36 49.34996 -124.83074 38284 ft 378 kts 327°
2026-04-16 21:36 49.39410 -124.87471 38283 ft 379 kts 327°
2026-04-16 21:37 49.43835 -124.91883 38286 ft 379 kts 327°
2026-04-16 21:37 49.48248 -124.96307 38284 ft 379 kts 327°
2026-04-16 21:38 49.52666 -125.00751 38289 ft 380 kts 327°
2026-04-16 21:38 49.57086 -125.05192 38296 ft 379 kts 327°
2026-04-16 21:39 49.61501 -125.09633 38298 ft 379 kts 327°
2026-04-16 21:39 49.65911 -125.14090 38297 ft 379 kts 327°
2026-04-16 21:40 49.70321 -125.18552 38294 ft 379 kts 326°
2026-04-16 21:40 49.74724 -125.23026 38296 ft 379 kts 326°
2026-04-16 21:41 49.79125 -125.27501 38297 ft 379 kts 326°
2026-04-16 21:41 49.83498 -125.31952 38299 ft 379 kts 326°
2026-04-16 21:42 49.87926 -125.36470 38291 ft 379 kts 326°
2026-04-16 21:42 49.92293 -125.40939 38270 ft 378 kts 326°
2026-04-16 21:43 49.96687 -125.45445 38263 ft 378 kts 326°
2026-04-16 21:43 50.01076 -125.49959 38264 ft 379 kts 326°
2026-04-16 21:44 50.05469 -125.54485 38270 ft 379 kts 326°
2026-04-16 21:44 50.09863 -125.59021 38311 ft 379 kts 326°
2026-04-16 21:45 50.14264 -125.63572 38303 ft 380 kts 326°
2026-04-16 21:45 50.18660 -125.68141 38299 ft 380 kts 326°
2026-04-16 21:46 50.23059 -125.72718 38297 ft 380 kts 326°
2026-04-16 21:46 50.27458 -125.77297 38292 ft 380 kts 326°
2026-04-16 21:47 50.31857 -125.81887 38292 ft 380 kts 326°
2026-04-16 21:47 50.36259 -125.86493 38294 ft 381 kts 326°
2026-04-16 21:48 50.40662 -125.91103 38297 ft 381 kts 326°
2026-04-16 21:48 50.45063 -125.95729 38298 ft 381 kts 326°
2026-04-16 21:49 50.49459 -126.00368 38294 ft 381 kts 326°
2026-04-16 21:49 50.53850 -126.05009 38297 ft 380 kts 325°
2026-04-16 21:50 50.58239 -126.09653 38299 ft 380 kts 325°
2026-04-16 21:50 50.62630 -126.14310 38298 ft 380 kts 325°
2026-04-16 21:51 50.67012 -126.18978 38302 ft 380 kts 325°
2026-04-16 21:51 50.71394 -126.23656 38301 ft 380 kts 325°
2026-04-16 21:52 50.75775 -126.28332 38300 ft 380 kts 324°
2026-04-16 21:52 50.80160 -126.33017 38302 ft 380 kts 324°
2026-04-16 21:53 50.84538 -126.37712 38296 ft 380 kts 324°
2026-04-16 21:53 50.88909 -126.42414 38301 ft 381 kts 324°
2026-04-16 21:54 50.93281 -126.47135 38282 ft 381 kts 324°
2026-04-16 21:54 50.97657 -126.51879 38284 ft 381 kts 324°
2026-04-16 21:55 51.02039 -126.56627 38288 ft 382 kts 324°
2026-04-16 21:55 51.06430 -126.61384 38291 ft 382 kts 324°
2026-04-16 21:56 51.10815 -126.66156 38290 ft 382 kts 324°
2026-04-16 21:56 51.15171 -126.70911 38283 ft 382 kts 324°
2026-04-16 21:57 51.19560 -126.75707 38285 ft 383 kts 324°
2026-04-16 21:57 51.23952 -126.80524 38279 ft 383 kts 324°
2026-04-16 21:58 51.28379 -126.85387 38286 ft 384 kts 324°
2026-04-16 21:58 51.32750 -126.90201 38292 ft 384 kts 324°
2026-04-16 21:59 51.37186 -126.95097 38293 ft 385 kts 323°
2026-04-16 21:59 51.41599 -126.99976 38298 ft 386 kts 323°
2026-04-16 22:00 51.46011 -127.04871 38319 ft 386 kts 324°
2026-04-16 22:00 51.50389 -127.09732 38318 ft 385 kts 324°
2026-04-16 22:01 51.54791 -127.14635 38324 ft 385 kts 323°
2026-04-16 22:01 51.59188 -127.19555 38314 ft 385 kts 323°
2026-04-16 22:02 51.63588 -127.24487 38313 ft 386 kts 323°
2026-04-16 22:02 51.67995 -127.29426 38320 ft 386 kts 323°
2026-04-16 22:03 51.72395 -127.34380 38322 ft 386 kts 323°
2026-04-16 22:03 51.76801 -127.39338 38322 ft 386 kts 323°
2026-04-16 22:04 51.81206 -127.44316 38320 ft 387 kts 323°
2026-04-16 22:04 51.85612 -127.49311 38325 ft 387 kts 323°
2026-04-16 22:05 51.90016 -127.54328 38331 ft 387 kts 323°
2026-04-16 22:05 51.94421 -127.59353 38333 ft 387 kts 323°
2026-04-16 22:06 51.98830 -127.64385 38336 ft 388 kts 323°
2026-04-16 22:06 52.05438 -127.71953 38334 ft 388 kts 323°
2026-04-16 22:07 52.09850 -127.77001 38335 ft 388 kts 323°
2026-04-16 22:07 52.14256 -127.82075 38334 ft 388 kts 323°
2026-04-16 22:08 52.18664 -127.87155 38339 ft 388 kts 322°
2026-04-16 22:08 52.23065 -127.92254 38329 ft 388 kts 322°
2026-04-16 22:09 52.27464 -127.97363 38331 ft 389 kts 322°
2026-04-16 22:09 52.31870 -128.02492 38330 ft 389 kts 322°
2026-04-16 22:10 52.36275 -128.07627 38329 ft 389 kts 322°
2026-04-16 22:10 52.40675 -128.12780 38332 ft 389 kts 322°
2026-04-16 22:11 52.45078 -128.17934 38331 ft 389 kts 322°
2026-04-16 22:11 52.49474 -128.23104 38333 ft 389 kts 322°
2026-04-16 22:12 52.53871 -128.28289 38332 ft 389 kts 322°
2026-04-16 22:12 52.57523 -128.32598 38334 ft 389 kts 322°
2026-04-16 22:13 52.61916 -128.37795 38324 ft 389 kts 322°
2026-04-16 22:13 52.66311 -128.43010 38325 ft 390 kts 322°
2026-04-16 22:14 52.70704 -128.48234 38324 ft 390 kts 322°
2026-04-16 22:14 52.75101 -128.53476 38326 ft 390 kts 322°
2026-04-16 22:15 52.79497 -128.58723 38324 ft 390 kts 322°
2026-04-16 22:15 52.83891 -128.63976 38358 ft 390 kts 322°
2026-04-16 22:16 52.88285 -128.69245 38337 ft 390 kts 322°
2026-04-16 22:16 52.92665 -128.74532 38334 ft 390 kts 322°
2026-04-16 22:17 52.97039 -128.79831 38332 ft 389 kts 322°
2026-04-16 22:17 53.01415 -128.85124 38315 ft 389 kts 322°
2026-04-16 22:18 53.05799 -128.90439 38312 ft 391 kts 321°
2026-04-16 22:18 53.10189 -128.95781 38316 ft 391 kts 321°
2026-04-16 22:19 53.14578 -129.01143 38317 ft 392 kts 321°
2026-04-16 22:19 53.18971 -129.06516 38321 ft 392 kts 321°
2026-04-16 22:20 53.23367 -129.11905 38318 ft 392 kts 321°
2026-04-16 22:20 53.27760 -129.17307 38313 ft 393 kts 321°
2026-04-16 22:21 53.32159 -129.22723 38311 ft 393 kts 321°
2026-04-16 22:21 53.36533 -129.28134 38311 ft 394 kts 321°
2026-04-16 22:22 53.40963 -129.33625 38314 ft 394 kts 321°
2026-04-16 22:22 53.45367 -129.39096 38333 ft 394 kts 321°
2026-04-16 22:23 53.49766 -129.44580 38326 ft 394 kts 321°
2026-04-16 22:23 53.54133 -129.50028 38322 ft 393 kts 321°
2026-04-16 22:24 53.58522 -129.55527 38324 ft 393 kts 321°
2026-04-16 22:24 53.62900 -129.61037 38323 ft 393 kts 321°
2026-04-16 22:25 53.67283 -129.66558 38326 ft 393 kts 321°
2026-04-16 22:25 53.71665 -129.72083 38321 ft 393 kts 320°
2026-04-16 22:26 53.76039 -129.77630 38320 ft 393 kts 320°
2026-04-16 22:26 53.80418 -129.83188 38326 ft 393 kts 320°
2026-04-16 22:27 53.84795 -129.88752 38328 ft 393 kts 320°
2026-04-16 22:27 53.89163 -129.94331 38323 ft 393 kts 320°
2026-04-16 22:28 53.93533 -129.99931 38317 ft 394 kts 320°
2026-04-16 22:28 53.97912 -130.05550 38320 ft 395 kts 320°
2026-04-16 22:29 54.01803 -130.10552 38321 ft 395 kts 320°
2026-04-16 22:29 54.05844 -130.15736 38325 ft 395 kts 320°
2026-04-16 22:30 54.08767 -130.19510 38257 ft 396 kts 320°
2026-04-16 22:30 54.10023 -130.21138 38123 ft 396 kts 320°
2026-04-16 22:30 54.12215 -130.23986 37846 ft 396 kts 320°
2026-04-16 22:31 54.14404 -130.26833 37573 ft 396 kts 320°
2026-04-16 22:31 54.16592 -130.29683 37309 ft 396 kts 320°
2026-04-16 22:31 54.18778 -130.32533 37046 ft 395 kts 320°
2026-04-16 22:31 54.20961 -130.35379 36786 ft 395 kts 320°
2026-04-16 22:32 54.23144 -130.38232 36527 ft 395 kts 320°
2026-04-16 22:32 54.25326 -130.41086 36280 ft 395 kts 320°
2026-04-16 22:32 54.27497 -130.43957 36038 ft 394 kts 319°
2026-04-16 22:32 54.29630 -130.46895 35800 ft 394 kts 318°
2026-04-16 22:33 54.31741 -130.49887 35552 ft 394 kts 317°
2026-04-16 22:33 54.33839 -130.52898 35306 ft 394 kts 317°
2026-04-16 22:33 54.35935 -130.55918 34851 ft 394 kts 317°
2026-04-16 22:33 54.38053 -130.58965 33956 ft 398 kts 317°
2026-04-16 22:34 54.40178 -130.62010 33052 ft 399 kts 317°
2026-04-16 22:34 54.42318 -130.65070 32244 ft 399 kts 317°
2026-04-16 22:34 54.44433 -130.68084 31748 ft 392 kts 317°
2026-04-16 22:34 54.46515 -130.71052 31191 ft 386 kts 317°
2026-04-16 22:35 54.48568 -130.73981 30637 ft 381 kts 317°
2026-04-16 22:35 54.50589 -130.76867 30059 ft 376 kts 317°
2026-04-16 22:35 54.52585 -130.79722 29524 ft 369 kts 317°
2026-04-16 22:35 54.54540 -130.82527 29021 ft 363 kts 317°
2026-04-16 22:36 54.56458 -130.85284 28514 ft 356 kts 317°
2026-04-16 22:36 54.58323 -130.87966 28022 ft 351 kts 317°
2026-04-16 22:36 54.60204 -130.90683 27548 ft 346 kts 317°
2026-04-16 22:36 54.62037 -130.93329 27083 ft 342 kts 318°
2026-04-16 22:37 54.63847 -130.95948 26621 ft 338 kts 318°
2026-04-16 22:37 54.65638 -130.98541 26173 ft 334 kts 318°
2026-04-16 22:37 54.67391 -131.01082 25737 ft 332 kts 318°
2026-04-16 22:37 54.69150 -131.03630 25318 ft 329 kts 318°
2026-04-16 22:38 54.70893 -131.06160 24896 ft 325 kts 318°
2026-04-16 22:38 54.72616 -131.08665 24476 ft 322 kts 317°
2026-04-16 22:38 54.74319 -131.11138 24100 ft 318 kts 317°
2026-04-16 22:38 54.76004 -131.13586 23685 ft 315 kts 317°
2026-04-16 22:39 54.77677 -131.16030 23302 ft 314 kts 317°
2026-04-16 22:39 54.79339 -131.18464 22933 ft 312 kts 317°
2026-04-16 22:39 54.80993 -131.20886 22559 ft 311 kts 318°
2026-04-16 22:39 54.82641 -131.23300 22198 ft 309 kts 318°
2026-04-16 22:40 54.84281 -131.25702 21848 ft 308 kts 318°
2026-04-16 22:40 54.85912 -131.28091 21488 ft 306 kts 318°
2026-04-16 22:40 54.87538 -131.30476 21122 ft 305 kts 318°
2026-04-16 22:40 54.89152 -131.32850 20762 ft 304 kts 318°
2026-04-16 22:41 54.90761 -131.35221 20390 ft 302 kts 318°
2026-04-16 22:41 54.92359 -131.37582 20021 ft 301 kts 318°
2026-04-16 22:41 54.93951 -131.39936 19659 ft 300 kts 319°
2026-04-16 22:41 54.95538 -131.42281 19275 ft 299 kts 319°
2026-04-16 22:42 54.97121 -131.44620 18900 ft 298 kts 319°
2026-04-16 22:42 54.98697 -131.46950 18497 ft 297 kts 319°
2026-04-16 22:42 55.00287 -131.49301 17814 ft 302 kts 319°
2026-04-16 22:42 55.01837 -131.51782 17384 ft 309 kts 311°
2026-04-16 22:43 55.03175 -131.54758 16962 ft 314 kts 307°
2026-04-16 22:43 55.04489 -131.57808 16536 ft 314 kts 307°
2026-04-16 22:43 55.05798 -131.60853 16130 ft 313 kts 307°
2026-04-16 22:43 55.07104 -131.63891 15724 ft 312 kts 307°
2026-04-16 22:44 55.08405 -131.66916 15322 ft 311 kts 307°
2026-04-16 22:44 55.09699 -131.69926 14928 ft 310 kts 307°
2026-04-16 22:44 55.10989 -131.72927 14536 ft 308 kts 307°
2026-04-16 22:44 55.12276 -131.75922 14149 ft 307 kts 307°
2026-04-16 22:45 55.13557 -131.78894 13717 ft 305 kts 307°
2026-04-16 22:45 55.14834 -131.81846 13282 ft 303 kts 307°
2026-04-16 22:45 55.16106 -131.84782 12853 ft 302 kts 307°
2026-04-16 22:45 55.17369 -131.87694 12436 ft 299 kts 307°
2026-04-16 22:46 55.18620 -131.90573 12015 ft 295 kts 307°
2026-04-16 22:46 55.19854 -131.93410 11598 ft 291 kts 307°
2026-04-16 22:46 55.21076 -131.96215 11191 ft 288 kts 307°
2026-04-16 22:46 55.22283 -131.98979 10876 ft 282 kts 307°
2026-04-16 22:47 55.23442 -132.01631 10601 ft 273 kts 307°
2026-04-16 22:47 55.24573 -132.04214 10323 ft 262 kts 307°
2026-04-16 22:47 55.25712 -132.06626 10039 ft 253 kts 314°
2026-04-16 22:47 55.27023 -132.08596 9736 ft 245 kts 324°
2026-04-16 22:48 55.28586 -132.09626 9431 ft 242 kts 352°
2026-04-16 22:48 55.30242 -132.09118 9145 ft 246 kts 15°
2026-04-16 22:48 55.31864 -132.08399 8842 ft 236 kts 358°
2026-04-16 22:48 55.33483 -132.08485 8565 ft 231 kts 354°
2026-04-16 22:49 55.35069 -132.08603 8387 ft 224 kts 354°
2026-04-16 22:49 55.36602 -132.08703 8181 ft 219 kts 354°
2026-04-16 22:49 55.38123 -132.08789 7861 ft 219 kts 355°
2026-04-16 22:49 55.39649 -132.08864 7561 ft 219 kts 355°
2026-04-16 22:50 55.41176 -132.08926 7256 ft 220 kts 356°
2026-04-16 22:50 55.42705 -132.08982 6950 ft 220 kts 356°
2026-04-16 22:50 55.44216 -132.09033 6704 ft 215 kts 356°
2026-04-16 22:50 55.45705 -132.09082 6374 ft 213 kts 356°
2026-04-16 22:51 55.47180 -132.09131 6050 ft 211 kts 356°
2026-04-16 22:51 55.48642 -132.09180 5732 ft 209 kts 356°
2026-04-16 22:51 55.50089 -132.09230 5460 ft 205 kts 356°
2026-04-16 22:51 55.51478 -132.09277 5329 ft 195 kts 356°
2026-04-16 22:52 55.52801 -132.09319 5201 ft 185 kts 356°
2026-04-16 22:52 55.54068 -132.09358 5075 ft 181 kts 356°
2026-04-16 22:52 55.55324 -132.09398 4929 ft 180 kts 356°
2026-04-16 22:52 55.56573 -132.09440 4795 ft 180 kts 356°
2026-04-16 22:53 55.57822 -132.09457 4661 ft 180 kts
2026-04-16 22:53 55.58994 -132.08670 4522 ft 185 kts 36°
2026-04-16 22:53 55.59751 -132.06853 4388 ft 187 kts 70°
2026-04-16 22:53 55.59833 -132.04591 4258 ft 187 kts 104°
2026-04-16 22:54 55.59220 -132.02622 4127 ft 183 kts 138°
2026-04-16 22:54 55.58105 -132.01758 4051 ft 175 kts 176°
2026-04-16 22:54 55.56896 -132.01358 4058 ft 178 kts 169°
2026-04-16 22:54 55.55700 -132.00808 4062 ft 178 kts 168°
2026-04-16 22:55 55.54504 -132.00258 4067 ft 177 kts 169°
2026-04-16 22:55 55.53310 -131.99708 4068 ft 177 kts 169°
2026-04-16 22:55 55.52131 -131.99059 4072 ft 179 kts 159°
2026-04-16 22:55 55.51089 -131.97920 4073 ft 181 kts 146°
2026-04-16 22:56 55.50146 -131.96510 3991 ft 171 kts 141°
2026-04-16 22:56 55.49306 -131.95116 3822 ft 161 kts 139°
2026-04-16 22:56 55.48543 -131.93811 3639 ft 145 kts 139°
2026-04-16 22:56 55.47837 -131.92594 3444 ft 140 kts 139°
2026-04-16 22:57 55.47148 -131.91403 3262 ft 138 kts 139°
2026-04-16 22:57 55.46466 -131.90222 3074 ft 137 kts 139°
2026-04-16 22:57 55.45791 -131.89054 2887 ft 135 kts 138°
2026-04-16 22:57 55.45338 -131.88270 2758 ft 135 kts 138°
2026-04-16 22:58 55.44670 -131.87113 2565 ft 134 kts 138°
2026-04-16 22:58 55.44009 -131.85967 2380 ft 133 kts 138°
2026-04-16 22:58 55.43348 -131.84824 2193 ft 132 kts 137°
2026-04-16 22:58 55.42705 -131.83711 2007 ft 131 kts 139°
2026-04-16 22:59 55.42058 -131.82593 1822 ft 130 kts 140°
2026-04-16 22:59 55.41415 -131.81482 1641 ft 129 kts 140°
2026-04-16 22:59 55.40780 -131.80384 1443 ft 128 kts 138°
2026-04-16 22:59 55.40145 -131.79288 1265 ft 127 kts 137°
2026-04-16 23:00 55.39514 -131.78199 1081 ft 127 kts 136°
2026-04-16 23:00 55.38892 -131.77125 901 ft 124 kts 136°
2026-04-16 23:00 55.38277 -131.76066 729 ft 123 kts 134°
2026-04-16 23:00 55.37670 -131.75020 562 ft 122 kts 133°
2026-04-16 23:01 55.37073 -131.73983 413 ft 120 kts 132°
2026-04-16 23:01 55.36475 -131.72953 198 ft 120 kts 134°
2026-04-16 23:01 55.35888 -131.71952 96 ft 111 kts 136°
2026-04-16 23:01 55.35524 -131.71322 96 ft 30 kts 137°
2026-04-16 23:02 55.35471 -131.71237 94 ft 19 kts 138°
2026-04-16 23:02 55.35280 -131.70943 96 ft 47 kts 136°
2026-04-16 23:02 55.35055 -131.70554 92 ft 43 kts 136°
2026-04-16 23:02 55.34904 -131.70301 96 ft 23 kts 136°
2026-04-16 23:03 55.34848 -131.70098 95 ft 18 kts 63°
2026-04-16 23:03 55.34943 -131.70082 96 ft 16 kts 325°
2026-04-16 23:03 55.35046 -131.70237 92 ft 24 kts 318°
2026-04-16 23:03 55.35174 -131.70442 83 ft 14 kts 317°
2026-04-16 23:04 55.35231 -131.70533 73 ft 14 kts 317°
2026-04-16 23:04 55.35319 -131.70674 68 ft 20 kts 317°
2026-04-16 23:04 55.35433 -131.70867 53 ft 25 kts 316°
2026-04-16 23:04 55.35517 -131.71001 56 ft 15 kts 337°
2026-04-16 23:05 55.35570 -131.71039 59 ft 7 kts 287°
2026-04-16 23:05 55.35626 -131.71084 56 ft 13 kts 15°
2026-04-16 23:05 55.35652 -131.71048 59 ft 0 kts 46°